Simultaneous Nadir Overpasses (SNOs) Predictions

Prediction of SNOs between GOES-16 and AQUA Satellite Orbit:

Table of predicted SNOs for the next 14.0 days since TLE Epoch: 9/26/2020
Index Date Time (GOES-16) GOES-16 Lat,Lon AQUA Lat,Lon Distance(km) Time Diff (sec)
1 09/27/2020 06:23:34 -0.01, -75.19 -0.63, -72.41 316.50 80
2 09/27/2020 18:44:57 0.01, -75.20 -0.50, -77.60 273.23 80
3 09/29/2020 18:35:25 0.01, -75.20 0.12, -74.64 63.94 80
4 10/01/2020 18:23:13 0.01, -75.22 0.74, -71.68 401.92 80
5 10/02/2020 06:44:29 -0.01, -75.22 0.31, -76.85 184.58 80
6 10/04/2020 06:29:37 -0.01, -75.24 -0.31, -73.89 154.09 80
7 10/04/2020 18:51:01 0.01, -75.25 -0.80, -79.08 435.15 80
8 10/06/2020 06:17:25 -0.01, -75.27 -0.94, -70.93 493.03 80
9 10/06/2020 18:38:49 0.01, -75.28 -0.16, -76.13 96.05 80
10 10/08/2020 18:29:17 0.01, -75.31 0.47, -73.17 243.23 80
11 10/09/2020 06:50:32 -0.01, -75.31 0.66, -78.32 342.88 80
